User: anonymous   Login
Location: Unspecified
(0.0000°N, 0.0000°E)
Time: 09:18:41
(UTC+00:00)
Language:

HEATHSAT - Orbit

View from above orbital plane
View from above orbital plane
View from above satellite
View from above satellite

Ground track
Ground track

The orbit data is extracted from the following two-line orbital elements,

1 22827U 93061E   18109.97670833 +.00000024 +00000-0 +26489-4 0  9991
2 22827 098.8570 091.3864 0009970 108.5841 321.2670 14.31251878281678
Epoch (UTC): 19 April 2018 23:26:27
Eccentricity: 0.0009970
inclination: 98.8570°
perigee height: 780 km
apogee height: 794 km
right ascension of ascending node: 91.3864°
argument of perigee: 108.5841°
revolutions per day: 14.31251878
mean anomaly at epoch: 321.2670°
orbit number at epoch: 28167

The dashed part of the orbit path shows where the satellite is in the earth's shadow,  

DLR